Year,Month,Day,Hour,Minute,Value (Times are PST for temperature in C)
2013,07,01,00,00,19.50
2013,07,01,00,01,19.50
2013,07,01,00,05,19.40
2013,07,01,00,06,19.40
2013,07,01,00,07,19.40
2013,07,01,00,08,19.40
2013,07,01,00,09,19.40
2013,07,01,00,10,19.40
2013,07,01,00,11,19.40
2013,07,01,00,12,19.40
2013,07,01,00,13,19.40
2013,07,01,00,14,19.40
2013,07,01,00,15,19.40
2013,07,01,00,16,19.40
2013,07,01,00,17,19.40
2013,07,01,00,18,19.40
2013,07,01,00,19,19.40
2013,07,01,00,20,19.40
2013,07,01,00,21,19.40
2013,07,01,00,22,19.40
2013,07,01,00,23,19.40
2013,07,01,00,24,19.40
2013,07,01,00,25,19.40
2013,07,01,00,26,19.40
2013,07,01,00,27,19.40
2013,07,01,00,28,19.30
2013,07,01,00,29,19.30
2013,07,01,00,30,19.30
2013,07,01,00,31,19.30
2013,07,01,00,32,19.30
2013,07,01,00,33,19.20
2013,07,01,00,34,19.20
2013,07,01,00,35,19.20
2013,07,01,00,36,19.20
2013,07,01,00,37,19.20
2013,07,01,00,38,19.20
2013,07,01,00,39,19.20
2013,07,01,00,40,19.20
2013,07,01,00,41,19.20
2013,07,01,00,42,19.20
2013,07,01,00,43,19.20
2013,07,01,00,44,19.20
2013,07,01,00,45,19.20
2013,07,01,00,46,19.20
2013,07,01,00,47,19.20
2013,07,01,00,48,19.20
2013,07,01,00,49,19.20
2013,07,01,00,50,19.20
2013,07,01,00,51,19.20
2013,07,01,00,52,19.20
2013,07,01,00,53,19.20
2013,07,01,00,54,19.10
2013,07,01,00,55,19.10
2013,07,01,00,56,19.10
2013,07,01,00,57,19.10
2013,07,01,00,58,19.10
2013,07,01,00,59,19.10
2013,07,01,01,00,19.00
2013,07,01,01,01,19.00
2013,07,01,01,02,19.00
2013,07,01,01,03,19.00
2013,07,01,01,04,19.00
2013,07,01,01,05,18.90
2013,07,01,01,06,18.90
2013,07,01,01,07,18.90
2013,07,01,01,08,18.90
2013,07,01,01,09,18.80
2013,07,01,01,10,18.80
2013,07,01,01,11,18.80
2013,07,01,01,12,18.70
2013,07,01,01,13,18.70
2013,07,01,01,14,18.70
2013,07,01,01,15,18.70
2013,07,01,01,16,18.60
2013,07,01,01,17,18.60
2013,07,01,01,18,18.60
2013,07,01,01,19,18.60
2013,07,01,01,20,18.60
2013,07,01,01,21,18.60
2013,07,01,01,22,18.70
2013,07,01,01,23,18.70
2013,07,01,01,24,18.70
2013,07,01,01,25,18.70
2013,07,01,01,26,18.70
2013,07,01,01,27,18.70
2013,07,01,01,28,18.70
2013,07,01,01,29,18.70
2013,07,01,01,30,18.80
2013,07,01,01,31,18.80
2013,07,01,01,32,18.80
2013,07,01,01,33,18.80
2013,07,01,01,34,18.80
2013,07,01,01,35,18.80
2013,07,01,01,36,18.90
2013,07,01,01,37,18.90
2013,07,01,01,38,18.90
2013,07,01,01,39,19.00
2013,07,01,01,40,19.00
2013,07,01,01,41,19.00
2013,07,01,01,42,19.00
2013,07,01,01,43,19.10
2013,07,01,01,44,19.10
2013,07,01,01,45,19.10
2013,07,01,01,46,19.20
2013,07,01,01,47,19.20
2013,07,01,01,48,19.20
2013,07,01,01,49,19.20
2013,07,01,01,50,19.20
2013,07,01,01,51,19.20
2013,07,01,01,52,19.20
2013,07,01,01,53,19.20
2013,07,01,01,54,19.20
2013,07,01,01,55,19.20
2013,07,01,01,56,19.20
2013,07,01,01,57,19.20
2013,07,01,01,58,19.20
2013,07,01,01,59,19.20
2013,07,01,02,00,19.20
2013,07,01,02,01,19.10
2013,07,01,02,02,19.10
2013,07,01,02,03,19.10
2013,07,01,02,04,19.10
2013,07,01,02,05,19.10
2013,07,01,02,06,19.10
2013,07,01,02,07,19.10
2013,07,01,02,08,19.10
2013,07,01,02,09,19.10
2013,07,01,02,10,19.10
2013,07,01,02,11,19.10
2013,07,01,02,12,19.20
2013,07,01,02,13,19.20
2013,07,01,02,14,19.20
2013,07,01,02,15,19.20
2013,07,01,02,16,19.20
2013,07,01,02,17,19.20
2013,07,01,02,18,19.10
2013,07,01,02,19,19.10
2013,07,01,02,20,19.10
2013,07,01,02,21,19.10
2013,07,01,02,22,19.10
2013,07,01,02,23,19.10
2013,07,01,02,24,19.00
2013,07,01,02,25,19.10
2013,07,01,02,26,19.00
2013,07,01,02,27,19.00
2013,07,01,02,28,19.00
2013,07,01,02,29,19.00
2013,07,01,02,30,19.00
2013,07,01,02,31,19.00
2013,07,01,02,32,19.00
2013,07,01,02,33,19.00
2013,07,01,02,34,18.90
2013,07,01,02,35,19.00
2013,07,01,02,36,19.00
2013,07,01,02,37,19.00
2013,07,01,02,38,19.00
2013,07,01,02,39,19.00
2013,07,01,02,40,19.00
2013,07,01,02,41,19.00
2013,07,01,02,42,19.00
2013,07,01,02,43,19.00
2013,07,01,02,44,18.90
2013,07,01,02,45,18.90
2013,07,01,02,46,18.90
2013,07,01,02,47,18.90
2013,07,01,02,48,18.90
2013,07,01,02,49,18.90
2013,07,01,02,50,18.90
2013,07,01,02,51,18.90
2013,07,01,02,52,18.90
2013,07,01,02,53,19.00
2013,07,01,02,54,19.00
2013,07,01,02,55,19.00
2013,07,01,02,56,19.00
2013,07,01,02,57,19.10
2013,07,01,02,58,19.10
2013,07,01,02,59,19.10
2013,07,01,03,00,19.10
2013,07,01,03,01,19.00
2013,07,01,03,02,19.00
2013,07,01,03,03,19.00
2013,07,01,03,04,19.00
2013,07,01,03,05,18.90
2013,07,01,03,06,18.90
2013,07,01,03,07,18.90
2013,07,01,03,08,18.90
2013,07,01,03,09,18.90
2013,07,01,03,10,19.00
2013,07,01,03,11,19.00
2013,07,01,03,12,19.00
2013,07,01,03,13,19.10
2013,07,01,03,14,19.10
2013,07,01,03,15,19.10
2013,07,01,03,16,19.10
2013,07,01,03,17,19.10
2013,07,01,03,18,19.10
2013,07,01,03,19,19.10
2013,07,01,03,20,19.20
2013,07,01,03,21,19.20
2013,07,01,03,22,19.20
2013,07,01,03,23,19.20
2013,07,01,03,24,19.20
2013,07,01,03,25,19.10
2013,07,01,03,26,19.10
2013,07,01,03,27,19.10
2013,07,01,03,28,19.10
2013,07,01,03,29,19.10
2013,07,01,03,30,19.00
2013,07,01,03,31,19.00
2013,07,01,03,32,18.90
2013,07,01,03,33,18.90
2013,07,01,03,34,18.90
2013,07,01,03,35,18.80
2013,07,01,03,36,18.80
2013,07,01,03,37,18.80
2013,07,01,03,38,18.80
2013,07,01,03,39,18.80
2013,07,01,03,40,18.70
2013,07,01,03,41,18.70
2013,07,01,03,42,18.70
2013,07,01,03,43,18.70
2013,07,01,03,44,18.70
2013,07,01,03,45,18.70
2013,07,01,03,46,18.70
2013,07,01,03,47,18.70
2013,07,01,03,48,18.70
2013,07,01,03,49,18.60
2013,07,01,03,50,18.60
2013,07,01,03,51,18.60
2013,07,01,03,52,18.60
2013,07,01,03,53,18.60
2013,07,01,03,54,18.60
2013,07,01,03,55,18.60
2013,07,01,03,56,18.60
2013,07,01,03,57,18.60
2013,07,01,03,58,18.60
2013,07,01,03,59,18.60
2013,07,01,04,00,18.60
2013,07,01,04,01,18.60
2013,07,01,04,02,18.60
2013,07,01,04,03,18.60
2013,07,01,04,04,18.60
2013,07,01,04,05,18.60
2013,07,01,04,06,18.60
2013,07,01,04,07,18.50
2013,07,01,04,08,18.50
2013,07,01,04,09,18.50
2013,07,01,04,10,18.50
2013,07,01,04,11,18.50
2013,07,01,04,12,18.50
2013,07,01,04,13,18.50
2013,07,01,04,14,18.50
2013,07,01,04,15,18.50
2013,07,01,04,16,18.40
2013,07,01,04,17,18.40
2013,07,01,04,18,18.40
2013,07,01,04,19,18.40
2013,07,01,04,20,18.40
2013,07,01,04,21,18.40
2013,07,01,04,22,18.40
2013,07,01,04,23,18.40
2013,07,01,04,24,18.40
2013,07,01,04,25,18.30
2013,07,01,04,26,18.30
2013,07,01,04,27,18.30
2013,07,01,04,28,18.30
2013,07,01,04,29,18.30
2013,07,01,04,30,18.30
2013,07,01,04,31,18.30
2013,07,01,04,32,18.30
2013,07,01,04,33,18.30
2013,07,01,04,34,18.40
2013,07,01,04,35,18.40
2013,07,01,04,36,18.40
2013,07,01,04,37,18.40
2013,07,01,04,38,18.50
2013,07,01,04,39,18.50
2013,07,01,04,40,18.60
2013,07,01,04,41,18.60
2013,07,01,04,42,18.70
2013,07,01,04,43,18.70
2013,07,01,04,44,18.70
2013,07,01,04,45,18.70
2013,07,01,04,46,18.80
2013,07,01,04,47,18.90
2013,07,01,04,48,18.90
2013,07,01,04,49,18.90
2013,07,01,04,50,19.00
2013,07,01,04,51,19.00
2013,07,01,04,52,19.10
2013,07,01,04,53,19.10
2013,07,01,04,54,19.10
2013,07,01,04,55,19.10
2013,07,01,04,56,19.20
2013,07,01,04,57,19.20
2013,07,01,04,58,19.20
2013,07,01,04,59,19.20
2013,07,01,05,00,19.20
2013,07,01,05,01,19.30
2013,07,01,05,02,19.30
2013,07,01,05,03,19.30
2013,07,01,05,04,19.30
2013,07,01,05,05,19.30
2013,07,01,05,06,19.30
2013,07,01,05,07,19.20
2013,07,01,05,08,19.20
2013,07,01,05,09,19.20
2013,07,01,05,10,19.10
2013,07,01,05,11,19.10
2013,07,01,05,12,19.10
2013,07,01,05,13,19.10
2013,07,01,05,14,19.10
2013,07,01,05,15,19.10
2013,07,01,05,16,19.10
2013,07,01,05,17,19.10
2013,07,01,05,18,19.10
2013,07,01,05,19,19.00
2013,07,01,05,20,19.10
2013,07,01,05,21,19.10
2013,07,01,05,22,19.10
2013,07,01,05,23,19.10
2013,07,01,05,24,19.10
2013,07,01,05,25,19.10
2013,07,01,05,26,19.10
2013,07,01,05,27,19.10
2013,07,01,05,28,19.10
2013,07,01,05,29,19.10
2013,07,01,05,30,19.10
2013,07,01,05,31,19.10
2013,07,01,05,32,19.10
2013,07,01,05,33,19.10
2013,07,01,05,34,19.10
2013,07,01,05,35,19.10
2013,07,01,05,36,19.10
2013,07,01,05,37,19.10
2013,07,01,05,38,19.10
2013,07,01,05,39,19.10
2013,07,01,05,40,19.10
2013,07,01,05,41,19.10
2013,07,01,05,42,19.10
2013,07,01,05,43,19.10
2013,07,01,05,44,19.10
2013,07,01,05,45,19.10
2013,07,01,05,46,19.10
2013,07,01,05,47,19.10
2013,07,01,05,48,19.10
2013,07,01,05,49,19.10
2013,07,01,05,50,19.10
2013,07,01,05,51,19.10
2013,07,01,05,52,19.10
2013,07,01,05,53,19.10
2013,07,01,05,54,19.10
2013,07,01,05,55,19.10
2013,07,01,05,56,19.10
2013,07,01,05,57,19.00
2013,07,01,05,58,19.00
2013,07,01,05,59,19.10
2013,07,01,06,00,19.10
2013,07,01,06,01,19.10
2013,07,01,06,02,19.00
2013,07,01,06,03,19.00
2013,07,01,06,04,19.00
2013,07,01,06,05,18.90
2013,07,01,06,06,18.90
2013,07,01,06,07,18.90
2013,07,01,06,08,18.90
2013,07,01,06,09,18.90
2013,07,01,06,10,18.90
2013,07,01,06,11,18.90
2013,07,01,06,12,18.90
2013,07,01,06,13,18.90
2013,07,01,06,14,18.90
2013,07,01,06,15,18.80
2013,07,01,06,16,18.80
2013,07,01,06,17,18.80
2013,07,01,06,18,18.80
2013,07,01,06,19,18.80
2013,07,01,06,20,18.80
2013,07,01,06,21,18.80
2013,07,01,06,22,18.80
2013,07,01,06,23,18.80
2013,07,01,06,24,18.90
2013,07,01,06,25,18.90
2013,07,01,06,26,18.90
2013,07,01,06,27,18.90
2013,07,01,06,28,18.90
2013,07,01,06,29,19.00
2013,07,01,06,30,19.00
2013,07,01,06,31,19.10
2013,07,01,06,32,19.10
2013,07,01,06,33,19.20
2013,07,01,06,34,19.20
2013,07,01,06,35,19.30
2013,07,01,06,36,19.30
2013,07,01,06,37,19.40
2013,07,01,06,38,19.40
2013,07,01,06,39,19.50
2013,07,01,06,40,19.50
2013,07,01,06,41,19.60
2013,07,01,06,42,19.60
2013,07,01,06,43,19.60
2013,07,01,06,44,19.60
2013,07,01,06,45,19.60
2013,07,01,06,46,19.60
2013,07,01,06,47,19.60
2013,07,01,06,48,19.70
2013,07,01,06,49,19.70
2013,07,01,06,50,19.70
2013,07,01,06,51,19.80
2013,07,01,06,52,19.80
2013,07,01,06,53,19.80
2013,07,01,06,54,19.90
2013,07,01,06,55,19.90
2013,07,01,06,56,20.00
2013,07,01,06,57,20.00
2013,07,01,06,58,20.10
2013,07,01,06,59,20.20
2013,07,01,07,00,20.20
2013,07,01,07,01,20.30
2013,07,01,07,02,20.30
2013,07,01,07,03,20.40
2013,07,01,07,04,20.40
2013,07,01,07,05,20.50
2013,07,01,07,06,20.50
2013,07,01,07,07,20.60
2013,07,01,07,08,20.70
2013,07,01,07,09,20.70
2013,07,01,07,10,20.80
2013,07,01,07,11,20.80
2013,07,01,07,12,20.90
2013,07,01,07,13,20.90
2013,07,01,07,14,21.00
2013,07,01,07,15,21.10
2013,07,01,07,16,21.10
2013,07,01,07,17,21.20
2013,07,01,07,18,21.20
2013,07,01,07,19,21.20
2013,07,01,07,20,21.20
2013,07,01,07,21,21.20
2013,07,01,07,22,21.20
2013,07,01,07,23,21.20
2013,07,01,07,24,21.20
2013,07,01,07,25,21.20
2013,07,01,07,26,21.20
2013,07,01,07,27,21.10
2013,07,01,07,28,21.10
2013,07,01,07,29,21.10
2013,07,01,07,30,21.10
2013,07,01,07,31,21.10
2013,07,01,07,32,21.10
2013,07,01,07,33,21.20
2013,07,01,07,34,21.20
2013,07,01,07,35,21.10
2013,07,01,07,36,21.10
2013,07,01,07,37,21.10
2013,07,01,07,38,21.10
2013,07,01,07,39,20.90
2013,07,01,07,40,20.90
2013,07,01,07,41,20.80
2013,07,01,07,42,20.80
2013,07,01,07,43,20.80
2013,07,01,07,44,20.80
2013,07,01,07,45,20.80
2013,07,01,07,46,20.80
2013,07,01,07,47,20.80
2013,07,01,07,48,20.80
2013,07,01,07,49,20.80
2013,07,01,07,50,20.80
2013,07,01,07,51,20.80
2013,07,01,07,52,20.90
2013,07,01,07,53,20.90
2013,07,01,07,54,20.90
2013,07,01,07,55,21.00
2013,07,01,07,56,21.00
2013,07,01,07,57,21.00
2013,07,01,07,58,21.00
2013,07,01,07,59,21.10
2013,07,01,08,00,21.10
2013,07,01,08,01,21.00
2013,07,01,08,02,21.00
2013,07,01,08,03,21.00
2013,07,01,08,04,21.00
2013,07,01,08,05,21.00
2013,07,01,08,06,21.00
2013,07,01,08,07,21.00
2013,07,01,08,08,21.10
2013,07,01,08,09,21.00
2013,07,01,08,10,21.00
2013,07,01,08,11,21.00
2013,07,01,08,12,20.90
2013,07,01,08,13,20.90
2013,07,01,08,14,20.90
2013,07,01,08,15,20.90
2013,07,01,08,16,20.90
2013,07,01,08,17,20.90
2013,07,01,08,18,20.90
2013,07,01,08,19,20.90
2013,07,01,08,20,21.00
2013,07,01,08,21,21.00
2013,07,01,08,22,21.10
2013,07,01,08,23,21.00
2013,07,01,08,24,21.00
2013,07,01,08,25,21.00
2013,07,01,08,26,21.00
2013,07,01,08,27,21.00
2013,07,01,08,28,21.00
2013,07,01,08,29,21.00
2013,07,01,08,30,20.90
2013,07,01,08,31,20.90
2013,07,01,08,32,20.80
2013,07,01,08,33,20.80
2013,07,01,08,34,20.70
2013,07,01,08,35,20.70
2013,07,01,08,36,20.70
2013,07,01,08,37,20.60
2013,07,01,08,38,20.60
2013,07,01,08,39,20.60
2013,07,01,08,40,20.60
2013,07,01,08,41,20.60
2013,07,01,08,42,20.70
2013,07,01,08,43,20.70
2013,07,01,08,44,20.80
2013,07,01,08,45,20.80
2013,07,01,08,46,20.90
2013,07,01,08,47,20.90
2013,07,01,08,48,20.90
2013,07,01,08,49,20.90
2013,07,01,08,50,20.90
2013,07,01,08,51,20.90
2013,07,01,08,52,20.90
2013,07,01,08,53,21.00
2013,07,01,08,54,21.10
2013,07,01,08,55,21.20
2013,07,01,08,56,21.20
2013,07,01,08,57,21.20
2013,07,01,08,58,21.20
2013,07,01,08,59,21.10
2013,07,01,09,00,21.10
2013,07,01,09,01,21.10
2013,07,01,09,02,21.10
2013,07,01,09,03,21.10
2013,07,01,09,04,21.10
2013,07,01,09,05,21.10
2013,07,01,09,06,21.10
2013,07,01,09,07,21.20
2013,07,01,09,08,21.30
2013,07,01,09,09,21.30
2013,07,01,09,10,21.30
2013,07,01,09,11,21.40
2013,07,01,09,12,21.40
2013,07,01,09,13,21.50
2013,07,01,09,14,21.40
2013,07,01,09,15,21.40
2013,07,01,09,16,21.30
2013,07,01,09,17,21.30
2013,07,01,09,18,21.20
2013,07,01,09,19,21.20
2013,07,01,09,20,21.10
2013,07,01,09,21,21.10
2013,07,01,09,22,21.00
2013,07,01,09,23,21.00
2013,07,01,09,24,21.00
2013,07,01,09,25,21.00
2013,07,01,09,26,21.10
2013,07,01,09,27,21.10
2013,07,01,09,28,21.10
2013,07,01,09,29,21.20
2013,07,01,09,30,21.30
2013,07,01,09,31,21.40
2013,07,01,09,32,21.40
2013,07,01,09,33,21.50
2013,07,01,09,34,21.50
2013,07,01,09,35,21.60
2013,07,01,09,36,21.60
2013,07,01,09,37,21.60
2013,07,01,09,38,21.70
2013,07,01,09,39,21.70
2013,07,01,09,40,21.70
2013,07,01,09,41,21.80
2013,07,01,09,42,21.90
2013,07,01,09,43,21.90
2013,07,01,09,44,22.00
2013,07,01,09,45,22.00
2013,07,01,09,46,21.90
2013,07,01,09,47,22.00
2013,07,01,09,48,22.00
2013,07,01,09,49,22.10
2013,07,01,09,50,22.10
2013,07,01,09,51,22.20
2013,07,01,09,52,22.30
2013,07,01,09,53,22.40
2013,07,01,09,54,22.40
2013,07,01,09,55,22.40
2013,07,01,09,56,22.40
2013,07,01,09,57,22.30
2013,07,01,09,58,22.30
2013,07,01,09,59,22.20
2013,07,01,10,00,22.10
2013,07,01,10,01,22.10
2013,07,01,10,02,22.10
2013,07,01,10,03,22.10
2013,07,01,10,04,22.00
2013,07,01,10,05,22.00
2013,07,01,10,06,22.10
2013,07,01,10,07,22.10
2013,07,01,10,08,22.20
2013,07,01,10,09,22.20
2013,07,01,10,10,22.20
2013,07,01,10,11,22.30
2013,07,01,10,12,22.20
2013,07,01,10,13,22.20
2013,07,01,10,14,22.20
2013,07,01,10,15,22.10
2013,07,01,10,16,22.10
2013,07,01,10,17,22.10
2013,07,01,10,18,22.10
2013,07,01,10,19,22.10
2013,07,01,10,20,22.00
2013,07,01,10,21,22.00
2013,07,01,10,22,22.00
2013,07,01,10,23,22.00
2013,07,01,10,24,21.90
2013,07,01,10,25,21.90
2013,07,01,10,26,22.00
2013,07,01,10,27,22.10
2013,07,01,10,28,22.20
2013,07,01,10,29,22.30
2013,07,01,10,30,22.30
2013,07,01,10,31,22.40
2013,07,01,10,32,22.40
2013,07,01,10,33,22.40
2013,07,01,10,34,22.30
2013,07,01,10,35,22.30
2013,07,01,10,36,22.30
2013,07,01,10,37,22.30
2013,07,01,10,38,22.20
2013,07,01,10,39,22.20
2013,07,01,10,40,22.30
2013,07,01,10,41,22.30
2013,07,01,10,42,22.30
2013,07,01,10,43,22.40
2013,07,01,10,44,22.50
2013,07,01,10,45,22.50
2013,07,01,10,46,22.50
2013,07,01,10,47,22.50
2013,07,01,10,48,22.50
2013,07,01,10,49,22.50
2013,07,01,10,50,22.50
2013,07,01,10,51,22.40
2013,07,01,10,52,22.40
2013,07,01,10,53,22.40
2013,07,01,10,54,22.30
2013,07,01,10,55,22.40
2013,07,01,10,56,22.40
2013,07,01,10,57,22.40
2013,07,01,10,58,22.40
2013,07,01,10,59,22.40
2013,07,01,11,00,22.50
2013,07,01,11,01,22.50
2013,07,01,11,02,22.50
2013,07,01,11,03,22.60
2013,07,01,11,04,22.60
2013,07,01,11,05,22.60
2013,07,01,11,06,22.60
2013,07,01,11,07,22.50
2013,07,01,11,08,22.50
2013,07,01,11,09,22.60
2013,07,01,11,10,22.60
2013,07,01,11,11,22.70
2013,07,01,11,12,22.70
2013,07,01,11,13,22.70
2013,07,01,11,14,22.70
2013,07,01,11,15,22.70
2013,07,01,11,16,22.80
2013,07,01,11,17,22.80
2013,07,01,11,18,22.90
2013,07,01,11,19,23.00
2013,07,01,11,20,23.00
2013,07,01,11,21,23.20
2013,07,01,11,22,23.20
2013,07,01,11,23,23.20
2013,07,01,11,24,23.20
2013,07,01,11,25,23.10
2013,07,01,11,26,23.10
2013,07,01,11,27,23.10
2013,07,01,11,28,23.10
2013,07,01,11,29,23.00
2013,07,01,11,30,23.00
2013,07,01,11,31,22.90
2013,07,01,11,32,22.90
2013,07,01,11,33,23.00
2013,07,01,11,34,23.00
2013,07,01,11,35,23.00
2013,07,01,11,36,23.00
2013,07,01,11,37,23.00
2013,07,01,11,38,23.00
2013,07,01,11,39,23.10
2013,07,01,11,40,23.20
2013,07,01,11,41,23.40
2013,07,01,11,42,23.50
2013,07,01,11,43,23.70
2013,07,01,11,44,23.70
2013,07,01,11,45,23.70
2013,07,01,11,46,23.60
2013,07,01,11,47,23.60
2013,07,01,11,48,23.70
2013,07,01,11,49,23.60
2013,07,01,11,50,23.60
2013,07,01,11,51,23.60
2013,07,01,11,52,23.70
2013,07,01,11,53,23.80
2013,07,01,11,54,24.00
2013,07,01,11,55,24.00
2013,07,01,11,56,24.10
2013,07,01,11,57,24.20
2013,07,01,11,58,24.30
2013,07,01,11,59,24.30
2013,07,01,12,00,24.50
2013,07,01,12,01,24.50
2013,07,01,12,02,24.50
2013,07,01,12,03,24.50
2013,07,01,12,04,24.50
2013,07,01,12,05,24.50
2013,07,01,12,06,24.60
2013,07,01,12,07,24.60
2013,07,01,12,08,24.70
2013,07,01,12,09,24.70
2013,07,01,12,10,24.70
2013,07,01,12,11,24.60
2013,07,01,12,12,24.60
2013,07,01,12,13,24.60
2013,07,01,12,14,24.60
2013,07,01,12,15,24.70
2013,07,01,12,16,24.80
2013,07,01,12,17,24.80
2013,07,01,12,18,24.70
2013,07,01,12,19,24.70
2013,07,01,12,20,24.60
2013,07,01,12,21,24.50
2013,07,01,12,22,24.40
2013,07,01,12,23,24.40
2013,07,01,12,24,24.40
2013,07,01,12,25,24.40
2013,07,01,12,26,24.50
2013,07,01,12,27,24.70
2013,07,01,12,28,24.80
2013,07,01,12,29,24.80
2013,07,01,12,30,24.80
2013,07,01,12,31,24.80
2013,07,01,12,32,24.90
2013,07,01,12,33,24.90
2013,07,01,12,34,25.00
2013,07,01,12,35,25.10
2013,07,01,12,36,25.10
2013,07,01,12,37,25.20
2013,07,01,12,38,25.30
2013,07,01,12,39,25.20
2013,07,01,12,40,25.10
2013,07,01,12,41,25.10
2013,07,01,12,42,25.20
2013,07,01,12,43,25.30
2013,07,01,12,44,25.30
2013,07,01,12,45,25.40
2013,07,01,12,46,25.40
2013,07,01,12,47,25.50
2013,07,01,12,48,25.50
2013,07,01,12,49,25.40
2013,07,01,12,50,25.40
2013,07,01,12,51,25.40
2013,07,01,12,52,25.30
2013,07,01,12,53,25.30
2013,07,01,12,54,25.20
2013,07,01,12,55,25.20
2013,07,01,12,56,25.20
2013,07,01,12,57,25.20
2013,07,01,12,58,25.10
2013,07,01,12,59,25.20
2013,07,01,13,00,25.20
2013,07,01,13,01,25.30
2013,07,01,13,02,25.40
2013,07,01,13,03,25.50
2013,07,01,13,04,25.60
2013,07,01,13,05,25.70
2013,07,01,13,06,25.80
2013,07,01,13,07,25.90
2013,07,01,13,08,25.90
2013,07,01,13,09,25.90
2013,07,01,13,10,25.90
2013,07,01,13,11,26.00
2013,07,01,13,12,26.00
2013,07,01,13,13,26.00
2013,07,01,13,14,25.90
2013,07,01,13,15,25.90
2013,07,01,13,16,25.90
2013,07,01,13,17,25.90
2013,07,01,13,18,25.90
2013,07,01,13,19,25.90
2013,07,01,13,20,25.80
2013,07,01,13,21,25.80
2013,07,01,13,22,25.90
2013,07,01,13,23,25.90
2013,07,01,13,24,26.00
2013,07,01,13,25,26.10
2013,07,01,13,26,26.20
2013,07,01,13,27,26.20
2013,07,01,13,28,26.30
2013,07,01,13,29,26.30
2013,07,01,13,30,26.30
2013,07,01,13,31,26.30
2013,07,01,13,32,26.30
2013,07,01,13,33,26.30
2013,07,01,13,34,26.30
2013,07,01,13,35,26.40
2013,07,01,13,36,26.40
2013,07,01,13,37,26.40
2013,07,01,13,38,26.40
2013,07,01,13,39,26.20
2013,07,01,13,40,26.10
2013,07,01,13,41,25.90
2013,07,01,13,42,25.80
2013,07,01,13,43,25.70
2013,07,01,13,44,25.50
2013,07,01,13,45,25.40
2013,07,01,13,46,25.20
2013,07,01,13,47,25.10
2013,07,01,13,48,25.00
2013,07,01,13,49,24.90
2013,07,01,13,50,24.90
2013,07,01,13,51,24.90
2013,07,01,13,52,24.90
2013,07,01,13,53,24.90
2013,07,01,13,54,24.90
2013,07,01,13,55,24.90
2013,07,01,13,56,24.90
2013,07,01,13,57,24.90
2013,07,01,13,58,24.80
2013,07,01,13,59,24.80
2013,07,01,14,00,24.80
2013,07,01,14,01,24.90
2013,07,01,14,02,24.90
2013,07,01,14,03,25.00
2013,07,01,14,04,25.00
2013,07,01,14,05,25.10
2013,07,01,14,06,25.00
2013,07,01,14,07,25.00
2013,07,01,14,08,24.90
2013,07,01,14,09,24.90
2013,07,01,14,10,24.90
2013,07,01,14,11,25.00
2013,07,01,14,12,25.10
2013,07,01,14,13,25.20
2013,07,01,14,14,25.20
2013,07,01,14,15,25.20
2013,07,01,14,16,25.20
2013,07,01,14,17,25.20
2013,07,01,14,18,25.20
2013,07,01,14,19,25.30
2013,07,01,14,20,25.20
2013,07,01,14,21,25.20
2013,07,01,14,22,25.20
2013,07,01,14,23,25.20
2013,07,01,14,24,25.20
2013,07,01,14,25,25.30
2013,07,01,14,26,25.60
2013,07,01,14,27,25.80
2013,07,01,14,28,25.90
2013,07,01,14,29,26.10
2013,07,01,14,30,26.20
2013,07,01,14,31,26.30
2013,07,01,14,32,26.30
2013,07,01,14,33,26.30
2013,07,01,14,34,26.20
2013,07,01,14,35,26.20
2013,07,01,14,36,26.20
2013,07,01,14,37,26.20
2013,07,01,14,38,26.20
2013,07,01,14,39,26.40
2013,07,01,14,40,26.60
2013,07,01,14,41,26.80
2013,07,01,14,42,27.00
2013,07,01,14,43,27.20
2013,07,01,14,44,27.20
2013,07,01,14,45,27.20
2013,07,01,14,46,27.20
2013,07,01,14,47,27.10
2013,07,01,14,48,27.10
2013,07,01,14,49,27.20
2013,07,01,14,50,27.20
2013,07,01,14,51,27.30
2013,07,01,14,52,27.30
2013,07,01,14,53,27.30
2013,07,01,14,54,27.30
2013,07,01,14,55,27.20
2013,07,01,14,56,27.10
2013,07,01,14,57,27.00
2013,07,01,14,58,26.90
2013,07,01,14,59,26.90
2013,07,01,15,00,26.80
2013,07,01,15,01,26.90
2013,07,01,15,02,26.90
2013,07,01,15,03,27.00
2013,07,01,15,04,27.10
2013,07,01,15,05,27.20
2013,07,01,15,06,27.20
2013,07,01,15,07,27.20
2013,07,01,15,08,27.10
2013,07,01,15,09,27.00
2013,07,01,15,10,26.90
2013,07,01,15,11,26.90
2013,07,01,15,12,26.90
2013,07,01,15,13,26.90
2013,07,01,15,14,27.00
2013,07,01,15,15,27.00
2013,07,01,15,16,27.10
2013,07,01,15,17,27.10
2013,07,01,15,18,27.20
2013,07,01,15,19,27.40
2013,07,01,15,20,27.40
2013,07,01,15,21,27.40
2013,07,01,15,22,27.40
2013,07,01,15,23,27.50
2013,07,01,15,24,27.60
2013,07,01,15,25,27.60
2013,07,01,15,26,27.60
2013,07,01,15,27,27.60
2013,07,01,15,28,27.60
2013,07,01,15,29,27.50
2013,07,01,15,30,27.40
2013,07,01,15,31,27.40
2013,07,01,15,32,27.40
2013,07,01,15,33,27.40
2013,07,01,15,34,27.40
2013,07,01,15,35,27.40
2013,07,01,15,36,27.30
2013,07,01,15,37,27.30
2013,07,01,15,38,27.20
2013,07,01,15,39,27.10
2013,07,01,15,40,27.00
2013,07,01,15,41,27.10
2013,07,01,15,42,27.20
2013,07,01,15,43,27.30
2013,07,01,15,44,27.30
2013,07,01,15,45,27.30
2013,07,01,15,46,27.20
2013,07,01,15,47,27.10
2013,07,01,15,48,27.10
2013,07,01,15,49,27.20
2013,07,01,15,50,27.30
2013,07,01,15,51,27.50
2013,07,01,15,52,27.60
2013,07,01,15,53,27.70
2013,07,01,15,54,27.70
2013,07,01,15,55,27.80
2013,07,01,15,56,27.80
2013,07,01,15,57,27.90
2013,07,01,15,58,27.80
2013,07,01,15,59,27.70
2013,07,01,16,00,27.60
2013,07,01,16,01,27.50
2013,07,01,16,02,27.40
2013,07,01,16,03,27.40
2013,07,01,16,04,27.50
2013,07,01,16,05,27.50
2013,07,01,16,06,27.60
2013,07,01,16,07,27.60
2013,07,01,16,08,27.60
2013,07,01,16,09,27.50
2013,07,01,16,10,27.50
2013,07,01,16,11,27.60
2013,07,01,16,12,27.70
2013,07,01,16,13,27.70
2013,07,01,16,14,27.80
2013,07,01,16,15,27.80
2013,07,01,16,16,27.70
2013,07,01,16,17,27.70
2013,07,01,16,18,27.60
2013,07,01,16,19,27.50
2013,07,01,16,20,27.50
2013,07,01,16,21,27.50
2013,07,01,16,22,27.50
2013,07,01,16,23,27.50
2013,07,01,16,24,27.50
2013,07,01,16,25,27.40
2013,07,01,16,26,27.30
2013,07,01,16,27,27.20
2013,07,01,16,28,27.20
2013,07,01,16,29,27.20
2013,07,01,16,30,27.30
2013,07,01,16,31,27.30
2013,07,01,16,32,27.50
2013,07,01,16,33,27.70
2013,07,01,16,34,27.90
2013,07,01,16,35,28.00
2013,07,01,16,36,28.10
2013,07,01,16,37,28.30
2013,07,01,16,38,28.40
2013,07,01,16,39,28.60
2013,07,01,16,40,28.70
2013,07,01,16,41,28.80
2013,07,01,16,42,28.80
2013,07,01,16,43,28.90
2013,07,01,16,44,28.90
2013,07,01,16,45,29.00
2013,07,01,16,46,29.00
2013,07,01,16,47,29.00
2013,07,01,16,48,29.00
2013,07,01,16,49,29.00
2013,07,01,16,50,28.90
2013,07,01,16,51,28.80
2013,07,01,16,52,28.60
2013,07,01,16,53,28.60
2013,07,01,16,54,28.60
2013,07,01,16,55,28.60
2013,07,01,16,56,28.70
2013,07,01,16,57,28.70
2013,07,01,16,58,28.70
2013,07,01,16,59,28.60
2013,07,01,17,00,28.60
2013,07,01,17,01,28.60
2013,07,01,17,02,28.50
2013,07,01,17,03,28.40
2013,07,01,17,04,28.40
2013,07,01,17,05,28.30
2013,07,01,17,06,28.40
2013,07,01,17,07,28.40
2013,07,01,17,08,28.40
2013,07,01,17,09,28.40
2013,07,01,17,10,28.30
2013,07,01,17,11,28.10
2013,07,01,17,12,28.00
2013,07,01,17,13,28.00
2013,07,01,17,14,27.90
2013,07,01,17,15,27.90
2013,07,01,17,16,28.00
2013,07,01,17,17,28.10
2013,07,01,17,18,28.10
2013,07,01,17,19,28.10
2013,07,01,17,20,28.10
2013,07,01,17,21,28.10
2013,07,01,17,22,28.10